Theta_e
333 330 336 333 331 331 331 331 335 337 335 334 333 329 332 331 334 333 332 332 335 329 330 331 330 330 330 330 332 333 332 331 329 327 326 328 326 325 329 328 329 330 329 328 326 321 318 313 316 323 325 326 326 328 329 328 329 329 329 329 330 330 329
328 330 329 329 331 332 331 331 336 331 333 334 332 335 331 329 330 331 333 333 334 332 327 327 328 329 331 332 333 332 331 331 332 330 329 328 326 327 328 326 326 326 327 326 326 324 320 315 315 317 318 326 326 326 328 328 328 330 329 328 329 329 327
329 328 330 330 330 331 332 332 331 332 332 334 333 330 331 329 331 330 331 330 330 327 327 327 328 330 330 329 330 332 332 331 332 332 329 330 330 328 328 327 324 325 324 322 323 323 322 321 315 315 318 318 318 323 327 327 327 328 329 328 327 325 324
330 330 328 328 329 332 329 329 331 333 334 330 332 331 330 329 329 330 329 327 330 330 327 327 328 326 330 330 329 329 329 328 328 329 330 329 328 327 328 328 324 324 322 320 321 322 322 319 317 317 319 317 318 318 323 326 322 325 327 327 324 321 318
329 329 327 327 327 328 329 330 332 331 329 330 329 330 331 330 329 326 328 330 329 329 327 328 325 324 325 326 327 327 326 328 328 327 326 326 328 327 327 328 327 326 327 325 325 324 322 320 320 316 319 314 314 314 319 320 320 319 320 320 319 317 315
330 329 328 329 330 328 330 330 329 328 328 327 328 328 330 332 332 330 328 328 328 329 329 329 325 323 324 324 323 323 324 322 323 324 323 323 323 323 323 323 323 323 325 326 326 324 326 324 324 317 314 315 311 311 313 316 313 316 318 318 318 317 317
332 329 330 329 331 330 331 330 330 328 327 325 326 328 328 325 327 327 327 327 326 326 326 326 324 324 324 320 321 321 320 321 323 322 321 322 321 321 322 316 317 320 321 322 323 324 323 324 317 316 314 314 313 310 311 311 311 310 313 316 318 318 317
331 330 332 331 331 332 331 329 331 329 325 325 326 328 325 325 326 326 326 325 326 327 327 326 325 323 321 318 319 320 320 320 319 320 320 320 320 320 319 320 319 316 317 317 316 318 322 322 322 319 315 311 312 312 307 307 307 308 310 313 316 316 316
328 330 331 329 333 333 330 331 331 329 328 326 326 327 327 324 323 323 324 325 326 326 326 325 323 322 323 321 321 321 319 321 321 320 319 320 320 320 320 320 316 316 317 317 316 317 315 320 324 326 319 313 307 304 307 304 304 305 310 309 312 314 313
327 328 328 328 331 333 333 333 329 329 328 326 325 327 324 326 326 323 322 324 323 322 322 323 324 323 322 320 318 318 318 321 320 319 321 319 320 320 320 318 317 317 317 318 319 317 318 317 319 318 316 314 312 312 305 305 304 302 304 308 305 308 312
327 329 328 328 329 331 332 331 330 327 326 325 325 325 327 326 324 324 324 324 325 326 326 324 320 322 322 321 321 319 320 322 320 320 319 319 320 320 319 318 318 317 319 318 318 319 318 317 317 312 314 315 315 311 311 304 304 307 304 304 304 304 306
327 327 327 328 327 327 328 329 329 327 327 325 324 325 325 324 324 324 324 323 323 323 324 324 323 320 319 320 322 322 321 319 318 317 318 318 320 319 317 318 319 319 320 317 318 316 316 315 317 314 313 317 317 315 312 307 303 306 309 304 305 304 304
326 325 326 326 326 325 325 326 327 327 326 325 324 325 324 323 324 322 322 322 323 323 324 324 322 324 323 322 320 320 320 321 319 319 319 320 318 320 316 315 317 317 318 317 316 319 316 315 316 315 315 314 312 316 311 308 304 304 310 305 305 304 307
328 326 327 327 326 325 326 324 326 327 325 327 324 324 323 322 321 323 321 321 320 323 323 324 325 324 323 321 322 322 321 317 313 315 316 317 316 317 316 315 315 317 318 317 315 318 314 314 313 316 316 313 312 313 314 308 304 304 306 315 311 307 309
330 326 325 326 326 327 327 326 328 325 325 327 324 322 321 324 323 322 320 320 321 321 322 322 324 324 320 322 321 324 323 320 317 319 319 312 316 321 318 313 314 316 317 318 317 312 313 314 311 311 312 314 312 314 313 309 306 304 302 307 307 305 308
330 326 325 324 326 324 326 327 326 326 325 326 325 324 323 324 323 322 322 322 320 321 321 323 326 323 322 321 320 322 323 320 320 318 319 317 314 318 318 317 316 317 321 316 319 318 318 315 314 314 313 315 314 313 313 314 310 305 304 307 310 306 310
329 327 323 324 326 323 324 325 327 326 325 322 321 326 325 321 323 324 322 321 321 322 322 325 325 322 321 322 322 322 322 322 321 321 320 318 316 317 319 317 316 318 317 317 317 317 316 316 317 313 315 315 314 315 314 316 312 309 309 308 310 307 310
329 328 324 324 326 323 324 324 325 325 330 325 322 325 322 323 323 322 324 320 320 321 322 323 323 324 325 325 323 323 322 321 322 322 323 322 323 320 319 319 318 318 318 316 314 318 316 314 315 313 310 312 313 315 316 314 313 313 311 310 309 311 312
330 330 329 328 327 325 327 328 324 326 325 322 326 327 323 322 321 320 320 320 320 320 320 322 323 323 324 325 325 324 323 324 323 322 322 323 321 322 321 321 322 318 318 318 318 317 318 316 315 314 312 312 313 314 314 313 314 312 310 310 309 310 310
327 324 326 325 321 324 325 324 324 322 324 323 324 325 325 323 325 322 319 320 320 319 321 321 324 326 326 326 325 324 324 325 325 324 324 322 322 323 322 322 321 321 319 319 319 318 316 316 315 313 313 313 313 313 312 312 311 312 313 311 311 310 310
327 327 327 324 323 322 322 325 322 321 324 327 323 321 322 323 324 321 323 321 321 322 323 323 325 326 326 326 325 325 325 325 324 324 324 323 323 322 322 322 322 322 322 321 320 319 318 316 315 313 313 313 311 311 310 311 311 310 310 311 311 308 310
326 325 324 323 322 321 323 324 326 326 326 326 329 326 327 324 322 320 320 324 325 323 322 321 321 319 321 323 322 322 324 324 324 321 320 321 321 322 323 321 320 321 321 318 310 313 315 315 316 313 312 311 311 312 311 310 311 312 310 310 310 310 309
326 326 325 324 323 323 324 327 327 326 325 326 326 325 324 324 324 324 324 323 323 320 322 322 318 310 306 319 323 322 323 323 321 318 318 317 317 320 318 319 319 320 315 310 306 302 302 301 305 309 310 312 311 311 310 310 309 309 310 308 308 307 307
325 325 325 325 326 325 325 326 324 326 327 327 324 325 323 323 325 324 323 323 321 321 322 321 309 304 304 303 317 323 323 318 318 319 319 318 316 318 319 320 320 319 314 311 307 301 302 298 294 295 296 298 303 311 311 310 309 309 308 308 308 308 306
325 324 325 324 324 325 325 325 324 324 326 326 326 325 323 323 323 323 324 323 323 322 321 314 305 304 301 300 302 315 321 320 320 320 319 320 319 318 318 319 320 322 319 318 314 309 304 298 294 293 293 293 292 293 297 308 308 307 307 306 306 306 304
322 323 323 323 325 325 324 324 324 324 324 325 325 323 323 323 322 324 325 324 322 321 321 307 300 297 298 296 297 308 319 320 320 319 318 318 319 319 319 319 320 320 320 319 317 315 312 304 295 294 294 296 295 293 292 292 296 305 307 307 305 305 306
321 322 325 323 324 323 323 323 325 325 323 322 322 321 322 321 321 322 324 324 323 321 323 308 297 297 296 296 295 305 320 322 320 320 319 320 321 319 320 318 318 317 318 318 318 317 314 309 304 302 304 305 302 298 294 292 294 295 300 307 306 305 307
313 316 322 322 323 324 323 324 322 323 322 321 320 320 320 320 321 321 322 322 322 323 322 303 295 295 295 295 293 299 320 322 321 319 319 318 318 316 318 319 318 318 318 318 319 318 315 310 308 308 306 306 304 305 304 304 305 306 307 308 307 307 305
319 320 319 320 319 320 322 322 322 322 321 320 320 321 320 319 318 317 319 321 322 320 311 294 295 295 295 294 293 310 318 320 320 319 318 318 317 318 318 318 316 315 319 318 308 304 308 312 310 308 307 306 305 303 297 293 292 293 298 300 300 300 298
313 313 314 317 318 318 319 320 322 321 320 320 319 319 319 318 318 318 319 321 321 320 314 298 294 295 294 293 298 314 318 319 319 318 317 317 317 313 310 312 317 317 314 307 299 299 301 305 311 308 307 306 306 305 301 298 293 291 291 291 291 290 291
310 311 312 312 313 315 316 318 319 322 319 319 318 318 319 319 319 319 319 319 320 319 319 304 293 294 293 293 302 315 318 319 319 316 314 314 311 308 304 304 315 315 310 304 293 296 300 309 311 309 307 306 306 304 301 302 300 299 290 291 291 290 290
309 310 310 312 313 313 314 315 316 317 318 319 318 319 317 317 317 318 319 319 317 318 320 307 293 293 293 293 299 313 318 318 313 312 312 311 311 307 302 299 300 304 303 296 291 291 294 304 309 309 307 307 305 305 303 302 301 299 298 298 297 296 296
309 309 309 311 312 312 313 313 314 315 317 317 315 314 315 314 315 315 317 318 319 319 320 313 298 293 294 294 296 310 316 315 312 312 311 310 309 307 303 300 296 291 291 291 291 291 292 297 306 308 310 307 305 305 305 305 305 303 302 302 302 301 301
307 308 308 309 310 310 311 311 313 313 314 314 313 313 315 315 315 314 314 316 318 318 320 318 306 292 294 294 293 297 312 315 314 313 312 309 308 306 303 300 297 291 290 290 291 291 293 294 296 301 299 297 297 299 302 302 299 297 300 299 298 298 299
306 307 306 307 307 308 310 311 311 312 311 312 313 313 313 313 311 311 312 314 314 317 317 313 311 293 292 292 293 292 305 314 313 313 311 312 308 305 302 299 297 292 290 291 291 291 292 292 293 295 292 289 289 291 297 300 301 299 300 299 298 298 299
305 306 306 306 306 306 307 308 309 309 309 310 311 311 312 311 310 310 311 311 310 313 315 312 303 299 291 291 291 291 292 300 298 313 313 310 310 304 301 297 294 291 290 290 290 291 291 291 292 291 288 288 288 289 294 298 298 300 299 298 298 297 295
303 304 304 304 304 304 304 305 306 306 307 308 308 308 308 309 308 308 308 308 308 310 314 312 302 299 293 290 291 292 291 291 295 310 312 310 305 301 297 295 293 289 290 290 290 290 290 291 290 288 288 288 289 291 296 297 297 299 295 295 295 294 295
Wind_Speed
2 3 2 3 3 4 3 3 1 2 2 2 4 5 4 4 3 3 4 4 2 3 4 3 3 4 4 4 4 3 4 5 3 3 2 1 2 2 1 1 1 1 2 2 3 1 2 4 4 7 5 4 4 4 5 5 4 5 5 5 6 6 5
5 3 3 2 2 2 3 3 1 2 3 3 3 2 4 6 7 4 3 1 2 0 5 4 5 5 4 3 3 4 4 3 3 3 2 1 3 2 1 1 2 1 1 4 0 3 3 5 4 6 6 2 4 3 3 4 5 4 5 5 6 6 6
4 3 3 3 3 2 2 2 3 3 3 2 3 4 4 3 6 6 3 3 3 3 5 7 5 3 3 4 4 4 5 5 3 4 3 2 2 2 1 2 2 1 2 3 3 1 3 3 6 5 6 4 4 3 3 4 5 6 5 5 5 5 5
3 3 3 3 3 1 2 2 2 2 2 4 3 3 3 4 5 5 5 3 2 4 4 4 3 4 3 3 4 4 4 4 4 4 4 4 4 3 2 1 3 2 2 2 2 1 2 3 6 4 3 6 7 6 4 7 9 9 8 5 6 7 6
3 3 3 3 3 2 2 2 2 3 3 3 3 2 2 3 4 5 4 3 4 3 3 3 4 4 4 4 4 4 4 4 4 4 3 3 3 4 4 3 4 4 3 3 2 3 4 2 3 4 4 7 6 6 8 6 9 8 8 8 8 7 6
3 3 3 3 2 3 2 2 3 3 3 3 2 2 1 3 2 3 4 4 3 3 3 2 4 5 4 3 5 4 4 4 4 4 4 4 3 3 3 3 4 3 4 5 5 3 0 3 5 6 5 5 6 5 5 4 5 7 8 9 9 7 6
3 4 3 3 2 2 2 2 2 3 4 3 2 2 2 3 3 3 3 3 3 3 3 3 4 4 4 5 5 4 5 4 4 4 4 4 4 4 3 6 4 3 3 4 4 7 5 4 4 4 6 5 6 7 6 7 7 6 7 8 7 7 6
4 4 3 3 2 2 2 3 2 4 5 3 3 2 3 3 3 3 3 3 3 3 3 3 4 5 5 5 4 4 4 4 5 5 4 4 4 4 5 3 4 6 6 5 5 4 3 3 3 2 4 6 4 3 6 7 8 7 5 5 7 6 6
6 4 3 3 2 2 3 2 3 4 4 4 3 3 3 3 3 4 3 3 3 2 2 3 4 4 4 4 3 3 4 3 4 4 4 3 4 4 4 4 5 5 5 6 4 5 6 5 1 3 2 3 4 6 5 6 4 6 6 6 6 6 6
6 5 4 4 3 2 2 2 3 4 5 4 4 3 3 3 3 4 4 3 3 4 4 3 3 3 4 4 4 4 4 4 4 4 4 4 4 4 4 6 5 4 4 4 4 5 5 5 4 3 3 5 6 3 5 4 3 4 6 7 4 4 6
5 5 5 4 4 3 2 3 3 5 4 4 3 3 3 3 4 4 3 3 2 2 2 3 4 3 3 3 3 4 4 3 4 3 4 4 4 3 4 5 4 4 4 3 4 5 5 6 3 6 6 7 5 5 3 7 5 3 3 4 4 5 4
6 5 5 5 4 3 3 3 3 4 4 4 4 3 3 3 3 3 3 3 3 3 3 3 3 4 4 3 3 3 4 4 4 4 4 4 3 4 5 4 4 3 2 4 3 4 4 4 3 4 6 6 6 4 5 6 6 3 3 4 4 3 4
7 6 5 6 5 4 4 3 3 4 4 3 4 3 3 3 3 4 3 3 3 3 2 3 3 3 2 3 3 3 3 3 3 3 2 1 3 4 5 4 3 4 4 3 3 2 2 4 4 5 5 5 4 5 9 7 7 4 3 3 3 3 3
5 6 6 6 5 5 4 4 3 3 3 3 4 3 3 3 4 4 4 4 4 3 3 2 2 2 3 4 3 1 1 4 5 3 2 4 4 3 3 4 4 4 4 5 5 2 1 3 3 4 4 6 5 5 6 8 7 5 2 0 2 3 2
4 5 6 5 5 4 4 4 4 4 3 3 4 4 4 3 3 4 4 4 4 4 3 3 3 3 3 3 2 2 1 3 4 2 3 5 3 2 4 5 4 3 3 3 3 4 4 5 3 6 6 5 6 6 5 6 7 5 4 1 3 3 3
5 6 7 6 5 6 4 4 4 3 3 3 3 3 3 3 3 3 3 3 4 3 3 3 2 4 3 2 1 1 3 3 2 2 0 1 3 3 3 3 3 1 2 2 3 3 3 4 4 7 5 4 5 5 4 3 5 5 6 2 3 3 2
6 5 7 5 5 5 4 4 3 4 3 4 4 3 3 4 3 3 3 3 3 3 3 2 2 3 3 2 2 2 1 2 2 1 0 1 4 2 3 4 2 2 1 2 3 1 2 4 2 3 2 3 4 4 4 4 5 4 3 5 1 5 3
6 5 6 4 5 5 5 4 3 3 3 4 4 3 4 3 3 3 3 3 4 3 3 3 2 2 2 2 2 3 2 2 1 0 0 4 3 2 2 0 3 2 0 3 1 2 3 4 7 6 5 3 5 4 4 3 4 3 1 4 3 3 1
5 4 4 3 3 4 2 1 4 3 4 4 3 3 4 3 3 3 3 3 3 3 3 3 2 2 2 2 1 3 3 2 1 1 1 1 1 1 1 1 2 3 1 0 2 5 5 5 5 5 5 5 5 4 5 7 5 1 2 2 4 2 1
8 7 4 4 6 6 1 4 3 4 3 4 3 3 2 3 2 3 5 4 4 4 4 4 2 2 2 2 2 1 1 2 1 1 1 1 1 1 0 0 1 3 1 3 3 3 3 4 4 4 3 3 3 4 5 3 3 3 3 2 2 4 3
7 8 5 6 4 8 6 5 4 4 2 2 4 4 3 3 3 3 3 4 4 4 3 2 1 1 0 1 2 1 2 1 1 1 0 0 0 1 0 0 1 0 1 1 2 2 1 3 2 2 2 2 3 4 3 1 2 3 3 0 1 2 1
5 6 6 4 5 2 1 3 1 3 1 3 4 3 1 2 3 5 4 1 1 8 11 7 4 4 3 3 3 5 3 1 1 4 7 9 9 6 6 8 9 8 2 6 8 5 4 4 1 2 1 2 2 1 0 1 2 1 3 3 1 1 1
5 6 7 7 6 5 5 2 2 1 3 4 3 3 2 3 5 4 1 2 8 7 3 3 7 7 3 3 4 6 2 5 8 6 3 2 5 2 4 1 2 7 5 9 10 9 9 11 10 6 3 2 0 1 2 1 2 3 5 5 3 3 3
4 5 4 5 4 4 4 4 4 1 1 1 1 1 2 2 1 2 3 4 6 4 1 2 7 4 7 5 4 4 6 6 5 3 3 4 6 4 2 0 4 4 4 6 7 10 7 10 9 9 9 8 6 3 2 0 3 4 3 2 3 5 3
5 4 5 5 5 5 4 4 5 4 3 1 1 1 1 0 0 1 1 4 5 5 4 6 7 6 5 5 5 2 3 4 4 5 4 4 3 2 2 4 4 2 2 2 4 5 5 8 9 9 9 8 8 9 8 5 3 3 4 3 4 4 3
5 5 5 4 3 4 4 5 5 4 4 3 2 1 1 1 1 1 0 2 5 5 4 8 9 6 5 2 4 2 2 4 3 3 3 4 4 3 2 2 1 2 2 7 6 5 5 5 6 8 8 8 8 7 8 9 8 4 1 3 3 3 4
5 4 2 3 3 3 4 2 3 2 4 3 2 2 2 2 2 3 3 3 4 6 5 9 11 7 4 3 3 3 1 2 3 3 4 5 5 3 2 2 3 5 4 7 6 7 7 6 5 3 3 2 3 4 5 6 7 5 2 1 2 2 4
6 3 2 4 3 2 5 6 5 3 5 5 5 4 3 3 3 3 4 4 4 3 3 5 7 7 5 5 5 1 2 3 4 3 4 5 3 5 6 7 8 7 6 7 4 4 7 7 5 4 3 3 3 2 2 3 3 3 2 3 4 5 5
2 1 2 2 2 1 4 7 7 7 5 3 3 3 4 4 5 5 5 4 3 3 3 5 8 7 7 7 6 3 4 5 4 4 4 4 5 5 6 7 7 8 8 4 5 6 10 7 6 4 4 3 4 5 4 1 1 5 5 5 4 4 3
5 5 5 2 0 0 1 2 3 5 6 8 8 7 6 5 5 5 6 6 4 3 4 7 8 9 8 9 5 4 5 5 4 4 4 6 3 4 3 1 1 7 6 4 5 13 15 11 5 5 4 4 5 5 3 2 3 6 8 9 8 7 6
8 7 6 6 6 6 4 3 2 0 2 3 4 5 6 8 9 9 9 8 7 5 4 8 11 7 8 10 8 6 6 5 5 6 4 5 5 5 7 11 7 7 7 5 6 9 6 5 5 5 4 4 5 5 4 3 2 2 3 5 4 4 4
6 6 7 7 7 7 5 5 4 3 3 2 3 3 4 4 4 4 4 4 6 5 3 7 11 10 10 10 8 5 5 6 5 6 6 6 5 5 6 8 10 9 8 7 10 9 10 6 3 3 5 5 5 5 6 5 4 3 1 1 1 1 1
5 5 5 5 5 5 5 5 5 5 3 2 3 4 3 4 6 6 6 5 6 6 5 5 9 12 11 12 13 6 5 4 4 6 7 8 6 4 5 5 7 9 11 11 11 12 11 9 4 3 2 4 3 2 6 3 3 3 3 1 1 4 4
6 5 5 5 5 5 5 6 6 6 4 4 4 5 3 3 3 6 7 7 7 7 5 6 9 14 13 12 10 8 4 4 3 3 1 7 7 6 5 4 4 5 11 11 12 12 13 13 10 7 8 6 3 1 4 4 2 5 0 1 3 3 4
7 6 6 6 5 5 4 5 5 6 5 4 4 5 4 3 5 5 5 6 6 7 8 12 6 10 10 9 9 8 5 3 3 4 3 2 5 7 7 6 5 6 11 12 12 13 13 13 11 8 7 7 9 12 4 2 4 3 3 4 4 4 3
7 6 6 6 7 6 5 5 6 6 7 7 7 6 5 4 4 4 4 6 6 5 6 6 11 9 9 9 10 10 10 6 2 1 8 6 3 7 6 8 6 8 11 11 11 12 13 13 10 6 8 8 7 3 1 0 1 0 0 2 2 3 4
8 7 7 7 7 7 7 7 7 6 6 6 6 6 6 5 5 5 4 4 5 5 6 5 7 11 9 11 11 12 11 7 1 1 3 7 8 9 9 8 9 12 12 11 11 11 10 9 7 7 7 6 4 2 0 1 1 2 2 2 1 2 4
Wind_Direction
141 100 83 60 66 66 71 115 140 158 130 155 163 154 122 95 124 65 38 8 55 131 143 115 86 38 48 55 46 88 122 126 131 109 115 131 154 185 146 197 189 174 253 351 6 48 156 138 93 78 98 145 114 92 96 93 88 94 96 88 95 103 99
101 90 87 96 81 95 134 216 177 96 60 35 36 51 130 142 91 78 80 8 352 86 127 105 81 80 73 76 82 77 90 98 95 106 108 112 103 91 266 120 273 60 76 111 119 122 247 113 86 93 96 47 89 78 100 108 107 102 95 92 89 90 89
110 124 135 112 113 184 179 72 70 68 93 75 32 29 10 59 126 134 86 42 20 28 69 91 106 93 84 80 71 69 72 73 68 90 82 68 86 96 124 107 119 86 79 79 31 295 13 53 124 140 142 144 114 123 133 129 133 122 118 118 112 101 88
123 128 110 134 157 177 118 138 138 140 102 77 76 32 25 28 33 58 100 109 48 20 59 89 92 100 96 107 103 88 86 92 95 95 116 102 107 130 137 162 93 95 119 109 179 147 98 103 119 139 164 129 135 140 175 166 146 146 143 139 105 90 86
142 133 146 173 175 159 153 177 122 105 91 95 70 48 55 59 52 74 63 52 46 40 42 62 105 113 107 76 68 84 81 81 84 71 67 103 141 160 163 164 137 140 155 139 138 95 131 157 102 138 157 132 127 131 157 175 131 119 126 118 114 114 112
152 152 168 172 200 152 175 133 132 119 123 115 107 125 125 88 68 69 81 65 45 37 40 46 92 94 82 93 98 78 81 85 72 74 65 51 41 45 68 59 110 137 154 150 130 110 137 142 149 174 133 124 128 139 145 136 117 126 132 128 127 123 120
162 162 170 178 186 144 185 133 153 138 127 102 116 105 100 96 85 71 74 99 108 90 71 43 37 69 90 81 62 76 77 64 60 66 73 55 37 36 55 75 49 42 41 86 104 154 173 168 145 147 136 140 161 143 140 121 116 108 82 85 82 91 104
156 160 173 161 165 157 133 175 159 123 116 134 121 106 97 104 112 104 93 79 79 113 106 64 63 71 78 88 102 102 92 104 103 81 63 61 46 36 43 70 67 42 24 27 67 12 125 146 165 141 135 150 179 133 108 91 91 93 108 84 103 95 92
147 157 158 144 159 138 161 183 133 120 121 114 113 125 110 102 113 126 128 124 127 109 100 93 84 74 70 72 70 68 74 69 81 92 89 71 54 39 40 58 62 49 34 22 27 29 32 341 103 51 330 113 107 123 109 105 113 114 115 110 112 121 118
158 162 157 156 142 166 169 147 126 120 112 117 135 134 136 152 113 92 91 89 75 74 90 111 108 106 105 100 97 88 82 82 87 82 80 78 57 43 55 58 59 47 68 38 20 27 358 2 40 56 33 84 70 72 130 117 107 107 121 131 120 118 130
169 157 148 148 148 156 145 126 120 117 129 139 145 147 140 121 114 109 111 117 133 126 96 94 105 106 107 106 101 113 123 112 92 91 95 90 77 67 69 86 82 86 53 53 46 21 18 1 11 45 41 46 54 39 107 110 89 68 87 69 116 134 117
163 151 142 144 148 152 161 148 134 137 135 144 147 134 133 127 131 129 124 112 93 96 98 94 93 92 105 117 112 93 93 100 105 94 91 98 96 81 62 54 49 51 80 90 82 63 22 6 1 81 55 62 44 44 87 108 100 8 66 73 41 72 119
155 153 148 149 154 156 165 136 138 135 145 159 136 156 150 150 137 142 132 130 130 130 133 99 106 134 120 101 110 127 150 143 108 87 93 117 124 108 90 73 59 36 17 64 57 75 95 30 24 41 74 77 54 60 89 85 92 77 21 110 104 114 119
156 149 152 150 152 159 147 144 141 143 149 170 144 168 164 160 164 160 150 151 147 136 119 126 103 86 69 66 63 87 101 101 101 101 120 82 49 46 83 99 60 30 23 42 1 308 139 140 94 71 70 76 44 33 96 108 107 100 36 83 126 84 32
181 148 149 154 152 140 127 132 145 136 176 158 161 182 169 173 164 173 161 154 137 147 143 143 155 108 84 78 54 19 18 54 62 52 54 81 72 73 56 75 73 42 9 29 1 13 33 347 82 62 46 44 40 30 52 115 124 130 135 240 115 138 156
178 151 150 158 154 138 139 143 155 161 171 164 185 194 165 165 183 170 169 148 154 143 151 135 129 111 116 141 121 37 34 80 86 80 21 124 120 81 84 98 88 55 49 10 10 14 17 5 42 65 65 64 71 38 28 55 121 132 148 165 170 148 69
169 155 153 160 150 146 154 155 165 163 195 150 203 208 151 174 189 182 168 158 150 154 130 139 132 141 143 158 144 123 101 81 110 203 161 271 110 131 92 82 94 84 33 46 20 8 30 4 62 112 80 111 104 104 44 347 100 114 143 140 48 101 175
161 167 146 157 138 147 156 162 160 176 197 169 186 201 146 189 182 197 169 172 161 163 144 150 160 128 150 124 170 161 159 172 167 151 286 62 19 77 102 132 129 100 62 86 297 338 69 56 34 45 34 31 83 47 73 45 43 67 110 121 154 148 198
141 128 101 90 66 114 135 192 161 198 194 179 194 191 149 197 181 194 174 207 165 165 155 153 154 164 151 184 193 156 202 156 181 207 118 100 125 32 73 346 83 123 115 44 17 41 33 52 53 50 39 33 42 44 33 18 355 113 79 140 149 120 78
93 65 57 85 100 359 287 218 179 200 195 175 168 182 147 201 197 225 183 208 178 169 170 165 168 160 151 194 230 143 241 169 161 265 143 169 205 116 96 7 34 57 62 67 43 50 73 62 60 57 35 44 54 48 44 27 346 359 36 70 44 110 142
119 135 139 124 148 155 218 245 183 202 192 187 167 174 186 214 198 226 232 199 206 180 157 102 46 89 32 345 315 267 192 195 219 199 174 253 112 91 134 320 78 62 68 92 121 114 45 83 64 68 65 72 63 56 23 352 322 339 341 351 123 87 54
145 136 137 143 164 177 227 271 28 353 248 137 39 20 347 253 226 202 243 336 26 53 52 58 36 308 316 249 250 257 255 303 286 0 355 8 8 359 19 31 10 345 308 92 68 70 91 74 125 116 69 54 48 52 306 290 295 291 286 330 22 87 112
132 141 158 158 164 178 201 191 58 2 353 40 72 80 45 5 11 348 335 32 67 86 120 172 207 208 43 295 233 242 225 36 38 57 76 285 283 358 25 353 229 254 274 126 102 86 83 76 65 66 36 20 44 215 237 291 3 15 3 352 349 77 25
165 162 150 140 149 168 176 147 149 155 48 42 30 54 57 352 1 73 46 77 107 110 149 236 222 169 272 311 359 25 83 122 153 120 134 205 239 217 118 290 272 278 234 135 121 120 112 96 90 83 72 69 58 51 349 8 50 12 1 17 0 3 45
148 149 164 162 170 171 165 159 145 174 156 136 126 63 264 283 47 55 89 110 129 160 181 227 234 230 264 303 49 34 88 113 141 145 155 178 243 268 151 198 239 234 228 217 136 123 101 91 94 90 83 75 69 59 61 75 82 46 16 21 27 44 22
126 150 138 150 167 168 161 165 157 162 152 159 150 180 295 320 293 287 167 159 150 175 190 202 213 222 251 328 64 102 132 130 147 170 172 172 181 204 206 191 153 70 284 234 160 155 143 107 81 96 108 92 65 80 86 70 67 95 24 19 45 30 23
140 121 114 125 158 162 126 129 117 125 130 128 179 213 227 249 260 251 239 223 179 177 190 190 190 193 197 140 120 93 221 141 151 164 163 172 176 149 144 177 151 214 227 209 183 171 155 137 136 130 149 147 117 82 81 95 99 88 110 59 48 42 49
33 42 104 132 149 166 142 141 152 146 155 169 187 196 205 232 241 249 248 229 218 179 183 171 162 174 164 131 125 119 219 178 176 176 178 178 188 157 181 193 202 201 199 206 179 188 138 143 143 153 163 161 128 160 86 44 31 23 29 35 38 52 60
65 80 84 51 2 282 146 163 165 173 179 215 222 188 188 225 236 234 240 242 224 159 181 188 180 186 165 139 139 198 211 211 196 180 196 183 180 192 193 197 209 209 194 170 164 149 131 137 146 162 162 177 126 78 63 43 91 65 62 66 59 68 84
20 354 9 351 329 18 335 121 175 165 179 183 192 198 201 214 252 273 269 257 240 203 159 208 206 201 165 158 153 216 214 218 204 200 204 213 149 99 75 78 211 146 117 103 118 126 138 145 145 156 163 159 125 117 125 162 107 85 92 91 97 98 111
4 356 354 349 358 354 356 356 338 175 205 194 188 181 182 186 197 211 221 223 218 225 172 190 199 194 168 177 193 205 214 213 221 196 183 112 96 79 50 41 75 109 108 100 88 97 127 145 148 161 155 144 150 145 163 145 132 76 81 110 113 134 160
358 353 341 354 349 346 343 336 316 305 276 235 239 193 182 191 187 190 203 205 190 200 190 176 187 184 187 181 206 233 223 225 213 154 134 110 98 83 62 45 55 83 102 101 83 74 55 45 35 168 157 168 182 184 159 156 145 136 158 174 194 180 243
355 350 333 334 337 330 329 322 316 307 295 281 250 230 189 203 188 188 187 188 168 195 191 165 183 187 191 190 197 212 235 254 222 157 148 131 124 112 101 84 60 74 96 92 89 80 66 64 61 0 185 180 176 107 127 129 122 142 146 187 167 182 213
335 332 324 323 321 318 316 312 314 313 302 291 298 291 237 225 224 185 193 181 171 188 192 180 181 184 191 191 183 196 225 258 246 168 150 141 133 138 121 89 85 73 89 88 85 80 77 72 70 70 69 75 90 122 90 111 87 91 143 235 260 271 271
326 319 306 294 290 283 287 293 295 300 301 289 265 267 275 224 237 221 194 171 165 185 186 179 167 182 186 181 173 186 217 222 77 155 161 205 150 135 126 130 118 96 97 98 95 91 89 87 85 84 79 79 56 51 43 61 148 178 201 210 227 236 242
304 301 302 301 296 290 285 282 279 286 289 289 283 271 268 266 264 263 197 179 176 158 136 155 166 169 182 179 178 185 212 254 37 151 165 166 102 119 114 118 115 118 105 101 98 101 103 100 90 104 110 88 83 70 353 248 247 201 335 332 355 346 347
308 308 299 296 288 280 273 266 267 265 265 266 271 264 256 258 253 256 239 209 188 160 146 137 166 167 171 182 181 192 193 193 152 113 161 151 147 130 132 132 133 128 110 101 92 86 86 92 111 114 101 85 59 75 300 317 269 214 204 223 268 280 258